Sierra Vista, AZ

5:27 PM MST on October 17, 2017 (GMT -0700)
Sierra Vista Municipal-Libby Army Air Field

Weather History for KFHU - November, 2012

Change the Weather History Date:

Sunday, November 18, 2012

  Actual Average Record
Temperature  
Mean Temperature 58 °F -  
Max Temperature 66 °F 66 °F 78 °F (1990)
Min Temperature 51 °F 44 °F 31 °F (1985)
Degree Days  
Heating Degree Days 6    
Growing Degree Days 8 (Base 50)    
Moisture  
Dew Point 45 °F    
Average Humidity 69    
Maximum Humidity 92    
Minimum Humidity 42    
Precipitation  
Precipitation 0.10 in - - ()
Sea Level Pressure  
Sea Level Pressure 30.09 in    
Wind  
Wind Speed 7 mph (SSW)    
Max Wind Speed 14 mph    
Max Gust Speed -    
Visibility 10 miles    
Events Rain    
Averages and records for this station are not official NWS values.
T = Trace of Precipitation, MM = Missing Value Source: NWS Daily Summary

Daily Weather History Graph

Daily Weather History Graph

Search for Another Location

Airport or City:

Trip Planner

Search our weather history database for the weather conditions in past years. The results will help you decide how hot, cold, wet, or windy it might be!

Date:

Astronomy

Nov. 18, 2012 Rise Set
Actual Time 6:52 AM MST 5:20 PM MST
Civil Twilight 6:26 AM MST 5:46 PM MST
Nautical Twilight 5:56 AM MST 6:16 PM MST
Astronomical Twilight 5:27 AM MST 6:45 PM MST
Moon 11:25 AM MST 10:38 PM MST
Length of Visible Light 11h 20m
Length of Day
10h 28m
Waxing Crescent, 31% of the Moon is Illuminated
Nov 18
Waxing Crescent
Nov 20
First Quarter
Nov 28
Full
Dec 6
Last Quarter
Dec 13
New

Hourly Weather History & Observations

Time (MST) Temp. Dew Point Humidity Pressure Visibility Wind Dir Wind Speed Gust Speed Precip Events Conditions
12:56 AM 52.0 °F 48.0 °F 86% 30.10 in 10.0 mi WNW 13.8 mph - 0.02 in Rain Light Rain
1:56 AM 51.1 °F 48.9 °F 92% 30.08 in 7.0 mi WNW 4.6 mph - 0.04 in Rain Light Rain
2:56 AM 51.1 °F 48.0 °F 89% 30.05 in 10.0 mi NNW 6.9 mph - 0.01 in Rain Light Rain
3:56 AM 52.0 °F 48.0 °F 86% 30.02 in 10.0 mi SSE 8.1 mph - 0.01 in Rain Light Rain
4:56 AM 54.0 °F 46.9 °F 77% 30.02 in 5.0 mi SE 4.6 mph - 0.02 in Rain Rain
5:56 AM 53.1 °F 46.9 °F 80% 30.05 in 10.0 mi SSW 8.1 mph - 0.00 in   Mostly Cloudy
6:56 AM 51.1 °F 46.9 °F 86% 30.08 in 10.0 mi Calm Calm - N/A   Partly Cloudy
7:56 AM 51.1 °F 48.0 °F 89% 30.10 in 10.0 mi South 4.6 mph - N/A   Clear
8:56 AM 51.1 °F 48.9 °F 92% 30.14 in 10.0 mi Calm Calm - N/A   Clear
9:56 AM 53.1 °F 48.9 °F 86% 30.14 in 10.0 mi SE 3.5 mph - N/A   Clear
10:56 AM 57.0 °F 50.0 °F 77% 30.13 in 10.0 mi East 4.6 mph - N/A   Clear
11:56 AM 61.0 °F 46.0 °F 58% 30.10 in 10.0 mi East 4.6 mph - N/A   Clear
12:56 PM 62.1 °F 45.0 °F 53% 30.08 in 10.0 mi Calm Calm - N/A   Scattered Clouds
1:56 PM 63.0 °F 44.1 °F 50% 30.07 in 10.0 mi East 3.5 mph - N/A   Mostly Cloudy
2:56 PM 66.0 °F 45.0 °F 47% 30.05 in 10.0 mi Calm Calm - N/A   Partly Cloudy
3:56 PM 66.0 °F 42.1 °F 42% 30.06 in 10.0 mi WNW 9.2 mph - N/A   Clear
4:56 PM 64.0 °F 42.1 °F 45% 30.06 in 10.0 mi West 9.2 mph - N/A   Partly Cloudy
5:56 PM 60.1 °F 42.1 °F 51% 30.09 in 10.0 mi SW 6.9 mph - N/A   Clear
6:56 PM 57.0 °F 42.1 °F 57% 30.12 in 10.0 mi SSW 8.1 mph - N/A   Clear
7:56 PM 55.9 °F 43.0 °F 62% 30.14 in 10.0 mi SW 10.4 mph - N/A   Clear
8:56 PM 55.0 °F 43.0 °F 64% 30.15 in 10.0 mi SW 11.5 mph - N/A   Clear
9:56 PM 53.1 °F 44.1 °F 71% 30.15 in 10.0 mi SSW 6.9 mph - N/A   Clear
10:56 PM 57.9 °F 41.0 °F 53% 30.14 in 10.0 mi Calm Calm - N/A   Clear
11:56 PM 53.1 °F 41.0 °F 64% 30.14 in 10.0 mi SW 3.5 mph - N/A   Clear